AZU2202 SBBR-SBRF

Flight info

Callsign AZU2202
Flight time 2h 10m
Altitude 37000
Route UGTAK UZ19 EPGEM DCT EGIKO DCT MUDAR
Aircraft E195/M-SDE3GILORVW/S

Departure

Time 2026-05-05 20:11
Airport Presidente Juscelino Kubitschek International Airport (SBBR)

Arrival

Time 2026-05-05 22:22
Airport Recife/Guararapes - Gilberto Freyre International Airport (SBRF)
Time Latitude Longitude Altitude Speed Heading
2026-05-05 19:44 -15.87018 -47.92004 3493 ft 0 kts 266°
2026-05-05 19:58 -15.87017 -47.91991 3492 ft 2 kts 265°
2026-05-05 19:58 -15.87016 -47.91975 3492 ft 2 kts 265°
2026-05-05 19:58 -15.87015 -47.91960 3492 ft 1 kts 265°
2026-05-05 19:58 -15.87014 -47.91949 3491 ft 2 kts 248°
2026-05-05 19:59 -15.87005 -47.91937 3491 ft 2 kts 216°
2026-05-05 19:59 -15.86998 -47.91933 3491 ft 2 kts 198°
2026-05-05 19:59 -15.86988 -47.91931 3491 ft 1 kts 178°
2026-05-05 19:59 -15.86981 -47.91932 3491 ft 0 kts 176°
2026-05-05 20:02 -15.86991 -47.91931 3491 ft 6 kts 176°
2026-05-05 20:02 -15.87040 -47.91940 3491 ft 7 kts 234°
2026-05-05 20:02 -15.87040 -47.91951 3491 ft 1 kts 321°
2026-05-05 20:02 -15.87034 -47.91953 3491 ft 0 kts 343°
2026-05-05 20:03 -15.87026 -47.91954 3491 ft 1 kts
2026-05-05 20:03 -15.87016 -47.91946 3491 ft 2 kts 45°
2026-05-05 20:03 -15.86998 -47.91931 3491 ft 4 kts 43°
2026-05-05 20:03 -15.86970 -47.91898 3490 ft 8 kts 53°
2026-05-05 20:04 -15.86946 -47.91834 3488 ft 11 kts 85°
2026-05-05 20:04 -15.86942 -47.91743 3486 ft 14 kts 80°
2026-05-05 20:04 -15.86869 -47.91700 3486 ft 13 kts 357°
2026-05-05 20:04 -15.86777 -47.91705 3485 ft 11 kts 355°
2026-05-05 20:05 -15.86689 -47.91712 3483 ft 13 kts 354°
2026-05-05 20:05 -15.86609 -47.91754 3481 ft 13 kts 290°
2026-05-05 20:05 -15.86608 -47.91850 3481 ft 13 kts 265°
2026-05-05 20:05 -15.86615 -47.91944 3481 ft 12 kts 264°
2026-05-05 20:06 -15.86622 -47.92036 3482 ft 12 kts 266°
2026-05-05 20:06 -15.86629 -47.92129 3482 ft 12 kts 267°
2026-05-05 20:06 -15.86605 -47.92219 3481 ft 13 kts 296°
2026-05-05 20:06 -15.86567 -47.92293 3480 ft 10 kts 305°
2026-05-05 20:07 -15.86531 -47.92365 3478 ft 12 kts 288°
2026-05-05 20:07 -15.86526 -47.92460 3476 ft 14 kts 266°
2026-05-05 20:07 -15.86533 -47.92562 3475 ft 15 kts 268°
2026-05-05 20:07 -15.86537 -47.92622 3474 ft 12 kts 264°
2026-05-05 20:08 -15.86542 -47.92683 3473 ft 7 kts 264°
2026-05-05 20:08 -15.86543 -47.92736 3471 ft 9 kts 287°
2026-05-05 20:08 -15.86485 -47.92772 3467 ft 2 kts 351°
2026-05-05 20:08 -15.86479 -47.92772 3467 ft 0 kts 359°
2026-05-05 20:09 -15.86467 -47.92772 3466 ft 4 kts 359°
2026-05-05 20:09 -15.86421 -47.92770 3464 ft 8 kts 15°
2026-05-05 20:09 -15.86374 -47.92742 3462 ft 8 kts 45°
2026-05-05 20:10 -15.86352 -47.92697 3462 ft 8 kts 74°
2026-05-05 20:10 -15.86347 -47.92661 3463 ft 0 kts 86°
2026-05-05 20:10 -15.86340 -47.92520 3465 ft 53 kts 86°
2026-05-05 20:11 -15.86300 -47.91943 3471 ft 116 kts 87°
2026-05-05 20:11 -15.86284 -47.88102 4310 ft 210 kts 101°
2026-05-05 20:12 -15.86499 -47.86611 4425 ft 225 kts 97°
2026-05-05 20:12 -15.86258 -47.84926 4373 ft 242 kts 79°
2026-05-05 20:12 -15.85968 -47.83325 5509 ft 223 kts 83°
2026-05-05 20:12 -15.85768 -47.81755 6360 ft 218 kts 84°
2026-05-05 20:13 -15.85609 -47.80162 6830 ft 233 kts 85°
2026-05-05 20:13 -15.85462 -47.78395 7045 ft 259 kts 86°
2026-05-05 20:13 -15.85320 -47.76481 7496 ft 274 kts 86°
2026-05-05 20:13 -15.85182 -47.74486 8210 ft 278 kts 86°
2026-05-05 20:14 -15.85055 -47.72512 8859 ft 270 kts 88°
2026-05-05 20:14 -15.85063 -47.70564 8948 ft 272 kts 90°
2026-05-05 20:14 -15.85086 -47.68571 8973 ft 275 kts 90°
2026-05-05 20:14 -15.85107 -47.66573 8977 ft 276 kts 90°
2026-05-05 20:15 -15.85127 -47.64581 8970 ft 277 kts 90°
2026-05-05 20:15 -15.85147 -47.62575 8978 ft 277 kts 90°
2026-05-05 20:15 -15.85166 -47.60596 8967 ft 278 kts 90°
2026-05-05 20:15 -15.85185 -47.58577 8973 ft 278 kts 90°
2026-05-05 20:16 -15.85114 -47.56595 8955 ft 277 kts 75°
2026-05-05 20:16 -15.84160 -47.54864 9014 ft 286 kts 43°
2026-05-05 20:16 -15.82513 -47.53592 9530 ft 296 kts 37°
2026-05-05 20:16 -15.80846 -47.52388 10303 ft 294 kts 37°
2026-05-05 20:17 -15.79165 -47.51190 10994 ft 296 kts 36°
2026-05-05 20:17 -15.77444 -47.49971 11544 ft 303 kts 36°
2026-05-05 20:17 -15.75685 -47.48729 12029 ft 312 kts 36°
2026-05-05 20:17 -15.73842 -47.47430 12488 ft 323 kts 36°
2026-05-05 20:18 -15.71980 -47.46117 13014 ft 330 kts 36°
2026-05-05 20:18 -15.70061 -47.44766 13637 ft 334 kts 36°
2026-05-05 20:18 -15.68123 -47.43402 14269 ft 338 kts 36°
2026-05-05 20:18 -15.66172 -47.42029 14901 ft 342 kts 36°
2026-05-05 20:19 -15.64201 -47.40641 15496 ft 346 kts 36°
2026-05-05 20:19 -15.62205 -47.39237 16062 ft 351 kts 36°
2026-05-05 20:19 -15.60150 -47.37791 16615 ft 356 kts 36°
2026-05-05 20:19 -15.58097 -47.36348 17142 ft 361 kts 35°
2026-05-05 20:20 -15.56066 -47.34805 17646 ft 364 kts 47°
2026-05-05 20:20 -15.54582 -47.32688 18154 ft 366 kts 60°
2026-05-05 20:20 -15.53261 -47.30402 18698 ft 369 kts 60°
2026-05-05 20:20 -15.51949 -47.28122 19232 ft 371 kts 61°
2026-05-05 20:21 -15.50628 -47.25825 19731 ft 375 kts 60°
2026-05-05 20:21 -15.49295 -47.23506 20219 ft 378 kts 60°
2026-05-05 20:21 -15.47934 -47.21140 20698 ft 381 kts 60°
2026-05-05 20:21 -15.46587 -47.18799 21153 ft 385 kts 60°
2026-05-05 20:22 -15.45192 -47.16375 21590 ft 389 kts 60°
2026-05-05 20:22 -15.43820 -47.13993 22040 ft 391 kts 60°
2026-05-05 20:22 -15.42423 -47.11567 22467 ft 395 kts 60°
2026-05-05 20:22 -15.41003 -47.09101 22895 ft 398 kts 60°
2026-05-05 20:23 -15.39586 -47.06644 23295 ft 402 kts 60°
2026-05-05 20:23 -15.38131 -47.04120 23680 ft 406 kts 60°
2026-05-05 20:23 -15.36684 -47.01611 24063 ft 410 kts 60°
2026-05-05 20:23 -15.35217 -46.99066 24456 ft 413 kts 60°
2026-05-05 20:24 -15.33754 -46.96532 24803 ft 417 kts 60°
2026-05-05 20:24 -15.32252 -46.93930 25160 ft 420 kts 60°
2026-05-05 20:24 -15.30757 -46.91341 25520 ft 423 kts 60°
2026-05-05 20:24 -15.29232 -46.88700 25872 ft 427 kts 60°
2026-05-05 20:25 -15.27713 -46.86072 26214 ft 430 kts 60°
2026-05-05 20:25 -15.26158 -46.83381 26563 ft 433 kts 60°
2026-05-05 20:25 -15.24621 -46.80724 26863 ft 437 kts 60°
2026-05-05 20:25 -15.23039 -46.77989 27174 ft 440 kts 60°
2026-05-05 20:26 -15.21452 -46.75248 27473 ft 444 kts 60°
2026-05-05 20:26 -15.19869 -46.72511 27794 ft 447 kts 60°
2026-05-05 20:26 -15.18266 -46.69743 28089 ft 451 kts 60°
2026-05-05 20:26 -15.16648 -46.66951 28408 ft 453 kts 60°
2026-05-05 20:27 -15.15017 -46.64136 28703 ft 456 kts 60°
2026-05-05 20:27 -15.13380 -46.61312 29006 ft 458 kts 60°
2026-05-05 20:27 -15.11739 -46.58483 29311 ft 461 kts 60°
2026-05-05 20:27 -15.10105 -46.55667 29596 ft 464 kts 60°
2026-05-05 20:28 -15.08444 -46.52806 29881 ft 466 kts 61°
2026-05-05 20:28 -15.06750 -46.49887 30138 ft 469 kts 61°
2026-05-05 20:28 -15.05085 -46.47020 30405 ft 472 kts 61°
2026-05-05 20:28 -15.03384 -46.44093 30660 ft 475 kts 62°
2026-05-05 20:29 -15.01682 -46.41165 30922 ft 478 kts 62°
2026-05-05 20:29 -14.99968 -46.38217 31160 ft 480 kts 62°
2026-05-05 20:29 -14.98225 -46.35220 31399 ft 484 kts 62°
2026-05-05 20:29 -14.96503 -46.32261 31671 ft 485 kts 62°
2026-05-05 20:30 -14.94758 -46.29264 31955 ft 487 kts 62°
2026-05-05 20:30 -14.93012 -46.26266 32294 ft 486 kts 62°
2026-05-05 20:30 -14.91303 -46.23266 32616 ft 484 kts 66°
2026-05-05 20:30 -14.89977 -46.20122 32939 ft 479 kts 76°
2026-05-05 20:31 -14.88973 -46.16816 33252 ft 478 kts 78°
2026-05-05 20:31 -14.87990 -46.13571 33612 ft 477 kts 77°
2026-05-05 20:31 -14.86984 -46.10272 33935 ft 477 kts 77°
2026-05-05 20:31 -14.85995 -46.07036 34234 ft 477 kts 77°
2026-05-05 20:32 -14.84996 -46.03769 34571 ft 477 kts 77°
2026-05-05 20:32 -14.83995 -46.00501 34891 ft 477 kts 77°
2026-05-05 20:32 -14.82995 -45.97234 35213 ft 476 kts 77°
2026-05-05 20:32 -14.81993 -45.93965 35515 ft 476 kts 77°
2026-05-05 20:33 -14.80996 -45.90714 35831 ft 476 kts 76°
2026-05-05 20:33 -14.79992 -45.87441 36103 ft 476 kts 76°
2026-05-05 20:33 -14.79001 -45.84212 36399 ft 476 kts 76°
2026-05-05 20:33 -14.77991 -45.80923 36657 ft 476 kts 76°
2026-05-05 20:34 -14.77000 -45.77697 36860 ft 478 kts 76°
2026-05-05 20:34 -14.75994 -45.74425 37094 ft 478 kts 76°
2026-05-05 20:34 -14.74988 -45.71154 37152 ft 478 kts 76°
2026-05-05 20:35 -14.72951 -45.64539 37171 ft 489 kts 76°
2026-05-05 20:35 -14.70874 -45.57799 37174 ft 500 kts 76°
2026-05-05 20:36 -14.68742 -45.50890 37168 ft 506 kts 76°
2026-05-05 20:36 -14.66618 -45.44017 37163 ft 505 kts 76°
2026-05-05 20:37 -14.64488 -45.37126 37158 ft 505 kts 76°
2026-05-05 20:37 -14.62346 -45.30211 37150 ft 505 kts 76°
2026-05-05 20:38 -14.60220 -45.23355 37143 ft 507 kts 76°
2026-05-05 20:38 -14.58082 -45.16465 37148 ft 505 kts 76°
2026-05-05 20:39 -14.55928 -45.09535 37150 ft 505 kts 76°
2026-05-05 20:39 -14.53790 -45.02662 37152 ft 504 kts 76°
2026-05-05 20:40 -14.51651 -44.95794 37146 ft 505 kts 76°
2026-05-05 20:40 -14.49512 -44.88934 37140 ft 505 kts 76°
2026-05-05 20:41 -14.47237 -44.82055 37123 ft 507 kts 68°
2026-05-05 20:41 -14.43526 -44.75880 37133 ft 512 kts 51°
2026-05-05 20:42 -14.39079 -44.70163 37118 ft 511 kts 53°
2026-05-05 20:42 -14.34660 -44.64399 37117 ft 511 kts 52°
2026-05-05 20:43 -14.30272 -44.58675 37114 ft 510 kts 52°
2026-05-05 20:43 -14.25972 -44.53071 37107 ft 510 kts 52°
2026-05-05 20:44 -14.21577 -44.47345 37109 ft 512 kts 52°
2026-05-05 20:44 -14.17286 -44.41759 37105 ft 510 kts 52°
2026-05-05 20:45 -14.10690 -44.33181 37088 ft 509 kts 52°
2026-05-05 20:45 -14.06269 -44.27436 37088 ft 509 kts 52°
2026-05-05 20:46 -14.01886 -44.21744 37090 ft 510 kts 52°
2026-05-05 20:46 -13.97478 -44.16024 37086 ft 509 kts 51°
2026-05-05 20:47 -13.93101 -44.10348 37081 ft 508 kts 52°
2026-05-05 20:47 -13.88696 -44.04639 37073 ft 508 kts 52°
2026-05-05 20:48 -13.84313 -43.98963 37072 ft 508 kts 52°
2026-05-05 20:48 -13.79907 -43.93261 37071 ft 507 kts 52°
2026-05-05 20:49 -13.75541 -43.87614 37070 ft 507 kts 51°
2026-05-05 20:49 -13.71140 -43.81927 37071 ft 507 kts 51°
2026-05-05 20:50 -13.66752 -43.76259 37068 ft 508 kts 51°
2026-05-05 20:50 -13.62357 -43.70586 37069 ft 508 kts 51°
2026-05-05 20:51 -13.57942 -43.64891 37072 ft 507 kts 51°
2026-05-05 20:51 -13.53585 -43.59275 37069 ft 507 kts 51°
2026-05-05 20:52 -13.49197 -43.53623 37070 ft 506 kts 51°
2026-05-05 20:52 -13.44778 -43.47934 37069 ft 507 kts 51°
2026-05-05 20:53 -13.40387 -43.42286 37071 ft 507 kts 51°
2026-05-05 20:53 -13.36007 -43.36655 37073 ft 506 kts 51°
2026-05-05 20:54 -13.31601 -43.30994 37070 ft 505 kts 51°
2026-05-05 20:54 -13.27232 -43.25384 37078 ft 504 kts 51°
2026-05-05 20:55 -13.22856 -43.19768 37086 ft 506 kts 51°
2026-05-05 20:55 -13.18473 -43.14149 37098 ft 505 kts 50°
2026-05-05 20:56 -13.14076 -43.08514 37115 ft 504 kts 50°
2026-05-05 20:56 -13.09692 -43.02900 37135 ft 505 kts 50°
2026-05-05 20:57 -13.05306 -42.97286 37157 ft 505 kts 50°
2026-05-05 20:57 -13.00912 -42.91666 37170 ft 505 kts 50°
2026-05-05 20:58 -12.96515 -42.86045 37171 ft 504 kts 50°
2026-05-05 20:58 -12.92140 -42.80456 37176 ft 504 kts 50°
2026-05-05 20:59 -12.88913 -42.76335 37158 ft 503 kts 50°
2026-05-05 20:59 -12.85469 -42.71942 37144 ft 508 kts 51°
2026-05-05 21:00 -12.81064 -42.66323 37117 ft 508 kts 51°
2026-05-05 21:00 -12.76635 -42.60677 37102 ft 507 kts 51°
2026-05-05 21:01 -12.72234 -42.55071 37112 ft 504 kts 50°
2026-05-05 21:01 -12.67855 -42.49497 37133 ft 504 kts 50°
2026-05-05 21:02 -12.63478 -42.43927 37135 ft 502 kts 50°
2026-05-05 21:02 -12.59091 -42.38349 37156 ft 503 kts 50°
2026-05-05 21:03 -12.54683 -42.32747 37178 ft 502 kts 50°
2026-05-05 21:03 -12.50300 -42.27180 37187 ft 503 kts 50°
2026-05-05 21:04 -12.45914 -42.21614 37206 ft 505 kts 50°
2026-05-05 21:04 -12.41509 -42.16025 37214 ft 504 kts 50°
2026-05-05 21:05 -12.37126 -42.10469 37211 ft 504 kts 50°
2026-05-05 21:05 -12.32714 -42.04880 37225 ft 503 kts 50°
2026-05-05 21:06 -12.28330 -41.99329 37221 ft 503 kts 50°
2026-05-05 21:06 -12.23946 -41.93780 37213 ft 503 kts 50°
2026-05-05 21:07 -12.19554 -41.88227 37210 ft 502 kts 50°
2026-05-05 21:07 -12.15172 -41.82687 37204 ft 502 kts 50°
2026-05-05 21:08 -12.10784 -41.77145 37201 ft 502 kts 50°
2026-05-05 21:08 -12.06390 -41.71596 37196 ft 502 kts 50°
2026-05-05 21:09 -12.01994 -41.66049 37197 ft 502 kts 50°
2026-05-05 21:09 -11.97603 -41.60512 37201 ft 500 kts 50°
2026-05-05 21:10 -11.93216 -41.54983 37199 ft 502 kts 50°
2026-05-05 21:10 -11.88821 -41.49447 37191 ft 503 kts 50°
2026-05-05 21:11 -11.84436 -41.43926 37186 ft 503 kts 50°
2026-05-05 21:11 -11.80027 -41.38379 37188 ft 502 kts 50°
2026-05-05 21:12 -11.75711 -41.32951 37184 ft 501 kts 49°
2026-05-05 21:12 -11.71329 -41.27445 37190 ft 500 kts 50°
2026-05-05 21:13 -11.66955 -41.21950 37197 ft 500 kts 49°
2026-05-05 21:13 -11.62577 -41.16454 37185 ft 499 kts 49°
2026-05-05 21:14 -11.58187 -41.10945 37178 ft 498 kts 49°
2026-05-05 21:14 -11.53833 -41.05486 37168 ft 499 kts 50°
2026-05-05 21:15 -11.49461 -41.00005 37153 ft 500 kts 49°
2026-05-05 21:15 -11.45074 -40.94510 37151 ft 498 kts 50°
2026-05-05 21:16 -11.40705 -40.89040 37144 ft 499 kts 49°
2026-05-05 21:16 -11.36342 -40.83581 37143 ft 497 kts 49°
2026-05-05 21:17 -11.31965 -40.78106 37146 ft 496 kts 49°
2026-05-05 21:17 -11.27628 -40.72685 37147 ft 496 kts 49°
2026-05-05 21:18 -11.23266 -40.67236 37142 ft 494 kts 49°
2026-05-05 21:18 -11.18933 -40.61825 37138 ft 496 kts 49°
2026-05-05 21:19 -11.14562 -40.56370 37136 ft 495 kts 49°
2026-05-05 21:19 -11.10223 -40.50958 37140 ft 495 kts 49°
2026-05-05 21:20 -11.06011 -40.45492 37147 ft 494 kts 52°
2026-05-05 21:20 -11.01930 -40.39855 37134 ft 494 kts 52°
2026-05-05 21:21 -10.97844 -40.34234 37115 ft 494 kts 52°
2026-05-05 21:21 -10.93753 -40.28612 37096 ft 493 kts 52°
2026-05-05 21:22 -10.89658 -40.22987 37080 ft 495 kts 52°
2026-05-05 21:22 -10.85581 -40.17390 37074 ft 494 kts 51°
2026-05-05 21:23 -10.81504 -40.11795 37070 ft 492 kts 52°
2026-05-05 21:23 -10.77427 -40.06204 37063 ft 492 kts 52°
2026-05-05 21:24 -10.73373 -40.00647 37061 ft 491 kts 52°
2026-05-05 21:24 -10.69297 -39.95063 37065 ft 492 kts 51°
2026-05-05 21:25 -10.65214 -39.89471 37061 ft 491 kts 52°
2026-05-05 21:25 -10.61161 -39.83924 37063 ft 491 kts 51°
2026-05-05 21:26 -10.57103 -39.78373 37061 ft 489 kts 51°
2026-05-05 21:26 -10.53031 -39.72807 37064 ft 492 kts 51°
2026-05-05 21:27 -10.48964 -39.67247 37066 ft 489 kts 51°
2026-05-05 21:27 -10.44913 -39.61715 37071 ft 490 kts 52°
2026-05-05 21:28 -10.40836 -39.56150 37079 ft 490 kts 51°
2026-05-05 21:28 -10.36752 -39.50576 37087 ft 489 kts 51°
2026-05-05 21:29 -10.32682 -39.45025 37094 ft 489 kts 52°
2026-05-05 21:29 -10.28618 -39.39485 37099 ft 490 kts 51°
2026-05-05 21:30 -10.24558 -39.33954 37097 ft 489 kts 51°
2026-05-05 21:30 -10.20477 -39.28395 37091 ft 489 kts 51°
2026-05-05 21:31 -10.16394 -39.22838 37087 ft 488 kts 51°
2026-05-05 21:31 -10.12294 -39.17260 37081 ft 488 kts 51°
2026-05-05 21:32 -10.08226 -39.11727 37079 ft 487 kts 51°
2026-05-05 21:32 -10.04157 -39.06197 37076 ft 487 kts 51°
2026-05-05 21:33 -10.00110 -39.00699 37075 ft 487 kts 51°
2026-05-05 21:33 -9.96054 -38.95190 37076 ft 488 kts 51°
2026-05-05 21:34 -9.92022 -38.89717 37072 ft 487 kts 51°
2026-05-05 21:34 -9.87949 -38.84192 37072 ft 487 kts 51°
2026-05-05 21:35 -9.83902 -38.78705 37070 ft 488 kts 51°
2026-05-05 21:35 -9.79840 -38.73199 37070 ft 487 kts 51°
2026-05-05 21:36 -9.75787 -38.67709 37072 ft 488 kts 51°
2026-05-05 21:36 -9.71724 -38.62206 37069 ft 487 kts 51°
2026-05-05 21:37 -9.67673 -38.56722 37064 ft 486 kts 51°
2026-05-05 21:37 -9.63630 -38.51253 37064 ft 486 kts 51°
2026-05-05 21:38 -9.59557 -38.45745 37056 ft 486 kts 51°
2026-05-05 21:38 -9.55508 -38.40271 37051 ft 486 kts 51°
2026-05-05 21:39 -9.51464 -38.34809 37049 ft 485 kts 51°
2026-05-05 21:39 -9.47410 -38.29333 37039 ft 486 kts 51°
2026-05-05 21:40 -9.43370 -38.23880 37034 ft 485 kts 51°
2026-05-05 21:40 -9.39322 -38.18417 37040 ft 485 kts 51°
2026-05-05 21:41 -9.35265 -38.12946 37046 ft 484 kts 51°
2026-05-05 21:41 -9.31209 -38.07479 37055 ft 485 kts 51°
2026-05-05 21:42 -9.27153 -38.02013 37068 ft 485 kts 51°
2026-05-05 21:42 -9.23106 -37.96562 37081 ft 485 kts 51°
2026-05-05 21:43 -9.19062 -37.91117 37081 ft 485 kts 51°
2026-05-05 21:43 -9.15020 -37.85677 37080 ft 484 kts 51°
2026-05-05 21:44 -9.10974 -37.80235 37079 ft 484 kts 51°
2026-05-05 21:44 -9.06917 -37.74780 37076 ft 484 kts 51°
2026-05-05 21:45 -9.02862 -37.69331 37076 ft 483 kts 51°
2026-05-05 21:45 -8.98835 -37.63919 37077 ft 482 kts 51°
2026-05-05 21:46 -8.94763 -37.58451 37080 ft 483 kts 51°
2026-05-05 21:46 -8.90711 -37.53012 37081 ft 482 kts 51°
2026-05-05 21:47 -8.86684 -37.47609 37085 ft 483 kts 51°
2026-05-05 21:47 -8.82636 -37.42180 37091 ft 481 kts 51°
2026-05-05 21:48 -8.78554 -37.36706 37095 ft 481 kts 51°
2026-05-05 21:48 -8.74687 -37.31524 37089 ft 481 kts 51°
2026-05-05 21:49 -8.70635 -37.26097 37095 ft 482 kts 51°
2026-05-05 21:49 -8.66585 -37.20673 37098 ft 481 kts 51°
2026-05-05 21:50 -8.62615 -37.15360 37100 ft 480 kts 51°
2026-05-05 21:50 -8.58584 -37.09965 37101 ft 480 kts 51°
2026-05-05 21:51 -8.54552 -37.04572 37103 ft 480 kts 51°
2026-05-05 21:51 -8.50514 -36.99175 37105 ft 480 kts 51°
2026-05-05 21:52 -8.44531 -36.91179 37100 ft 464 kts 51°
2026-05-05 21:53 -8.40670 -36.86023 37111 ft 461 kts 51°
2026-05-05 21:53 -8.36835 -36.80902 36635 ft 447 kts 51°
2026-05-05 21:53 -8.34988 -36.78437 35786 ft 447 kts 51°
2026-05-05 21:54 -8.33091 -36.75905 34725 ft 451 kts 51°
2026-05-05 21:54 -8.31201 -36.73383 33622 ft 455 kts 51°
2026-05-05 21:54 -8.29294 -36.70840 32566 ft 458 kts 51°
2026-05-05 21:54 -8.27385 -36.68294 31641 ft 459 kts 51°
2026-05-05 21:55 -8.25466 -36.65734 30711 ft 459 kts 51°
2026-05-05 21:55 -8.23557 -36.63189 29809 ft 458 kts 52°
2026-05-05 21:55 -8.21658 -36.60638 29795 ft 453 kts 54°
2026-05-05 21:56 -8.18638 -36.55034 29824 ft 457 kts 62°
2026-05-05 21:56 -8.15765 -36.49325 29823 ft 456 kts 62°
2026-05-05 21:57 -8.12867 -36.43588 29341 ft 458 kts 62°
2026-05-05 21:57 -8.11431 -36.40748 28848 ft 453 kts 62°
2026-05-05 21:57 -8.10014 -36.37944 28361 ft 447 kts 62°
2026-05-05 21:57 -8.08620 -36.35187 27873 ft 441 kts 62°
2026-05-05 21:58 -8.07242 -36.32462 27386 ft 436 kts 62°
2026-05-05 21:58 -8.05865 -36.29740 26902 ft 432 kts 62°
2026-05-05 21:58 -8.04513 -36.27068 26429 ft 429 kts 62°
2026-05-05 21:58 -8.03156 -36.24386 25952 ft 424 kts 62°
2026-05-05 21:59 -8.01833 -36.21772 25486 ft 420 kts 62°
2026-05-05 21:59 -8.00502 -36.19143 25015 ft 417 kts 62°
2026-05-05 21:59 -7.99192 -36.16555 24554 ft 413 kts 62°
2026-05-05 21:59 -7.97903 -36.14011 24102 ft 410 kts 62°
2026-05-05 22:00 -7.96639 -36.11515 23660 ft 407 kts 62°
2026-05-05 22:00 -7.95338 -36.08947 23208 ft 403 kts 62°
2026-05-05 22:00 -7.94062 -36.06429 22759 ft 400 kts 62°
2026-05-05 22:00 -7.92812 -36.03963 22320 ft 396 kts 62°
2026-05-05 22:01 -7.91571 -36.01514 21885 ft 393 kts 62°
2026-05-05 22:01 -7.90332 -35.99070 21454 ft 389 kts 62°
2026-05-05 22:01 -7.89104 -35.96647 21027 ft 386 kts 62°
2026-05-05 22:01 -7.87893 -35.94260 20604 ft 385 kts 63°
2026-05-05 22:02 -7.86673 -35.91855 20174 ft 383 kts 63°
2026-05-05 22:02 -7.85462 -35.89468 19749 ft 381 kts 63°
2026-05-05 22:02 -7.84271 -35.87121 19332 ft 378 kts 63°
2026-05-05 22:02 -7.83068 -35.84750 18907 ft 375 kts 63°
2026-05-05 22:03 -7.81901 -35.82451 18501 ft 373 kts 63°
2026-05-05 22:03 -7.80708 -35.80102 18075 ft 370 kts 64°
2026-05-05 22:03 -7.79549 -35.77817 17668 ft 367 kts 64°
2026-05-05 22:03 -7.78395 -35.75545 17263 ft 365 kts 64°
2026-05-05 22:04 -7.77243 -35.73277 16861 ft 362 kts 64°
2026-05-05 22:04 -7.76102 -35.71031 16460 ft 358 kts 64°
2026-05-05 22:04 -7.74970 -35.68803 16063 ft 354 kts 64°
2026-05-05 22:04 -7.73862 -35.66622 15672 ft 350 kts 64°
2026-05-05 22:05 -7.72890 -35.64406 15274 ft 346 kts 78°
2026-05-05 22:05 -7.72580 -35.62001 14920 ft 343 kts 84°
2026-05-05 22:05 -7.72368 -35.59629 14532 ft 341 kts 84°
2026-05-05 22:05 -7.72163 -35.57273 14154 ft 337 kts 84°
2026-05-05 22:06 -7.71962 -35.54952 13784 ft 334 kts 84°
2026-05-05 22:06 -7.71761 -35.52619 13414 ft 331 kts 84°
2026-05-05 22:06 -7.71564 -35.50335 13048 ft 329 kts 84°
2026-05-05 22:06 -7.71368 -35.48058 12684 ft 326 kts 85°
2026-05-05 22:07 -7.71171 -35.45777 12324 ft 325 kts 84°
2026-05-05 22:07 -7.70976 -35.43509 11960 ft 323 kts 85°
2026-05-05 22:07 -7.70782 -35.41264 11604 ft 318 kts 85°
2026-05-05 22:07 -7.70595 -35.39097 11254 ft 311 kts 85°
2026-05-05 22:08 -7.70409 -35.36953 11056 ft 299 kts 85°
2026-05-05 22:08 -7.70230 -35.34890 11054 ft 296 kts 85°
2026-05-05 22:08 -7.70049 -35.32811 11063 ft 299 kts 85°
2026-05-05 22:08 -7.69867 -35.30713 11068 ft 301 kts 85°
2026-05-05 22:09 -7.69683 -35.28601 11076 ft 301 kts 85°
2026-05-05 22:09 -7.69499 -35.26496 10904 ft 303 kts 85°
2026-05-05 22:09 -7.69318 -35.24413 10593 ft 298 kts 85°
2026-05-05 22:09 -7.69136 -35.22335 10267 ft 290 kts 85°
2026-05-05 22:10 -7.68963 -35.20354 9952 ft 283 kts 85°
2026-05-05 22:10 -7.68793 -35.18402 9639 ft 276 kts 85°
2026-05-05 22:10 -7.68627 -35.16503 9342 ft 271 kts 85°
2026-05-05 22:10 -7.68461 -35.14602 9041 ft 272 kts 85°
2026-05-05 22:11 -7.68295 -35.12716 8746 ft 273 kts 85°
2026-05-05 22:11 -7.68129 -35.10817 8446 ft 272 kts 86°
2026-05-05 22:11 -7.68043 -35.08902 8135 ft 272 kts 99°
2026-05-05 22:11 -7.68833 -35.07215 7888 ft 272 kts 131°
2026-05-05 22:12 -7.70399 -35.06197 7475 ft 277 kts 158°
2026-05-05 22:12 -7.72225 -35.05578 7130 ft 274 kts 159°
2026-05-05 22:12 -7.74013 -35.04990 6807 ft 271 kts 160°
2026-05-05 22:12 -7.75758 -35.04422 6507 ft 268 kts 160°
2026-05-05 22:13 -7.77365 -35.03902 6236 ft 266 kts 160°
2026-05-05 22:13 -7.79315 -35.03272 5910 ft 264 kts 160°
2026-05-05 22:13 -7.81093 -35.02699 5614 ft 262 kts 160°
2026-05-05 22:13 -7.82794 -35.02151 5323 ft 255 kts 160°
2026-05-05 22:14 -7.84407 -35.01631 5049 ft 249 kts 160°
2026-05-05 22:14 -7.85875 -35.01158 4816 ft 242 kts 160°
2026-05-05 22:14 -7.88485 -35.00296 4450 ft 230 kts 160°
2026-05-05 22:15 -7.90003 -34.99795 4205 ft 224 kts 160°
2026-05-05 22:15 -7.91356 -34.99348 3983 ft 219 kts 160°
2026-05-05 22:16 -7.96096 -34.97783 3181 ft 205 kts 160°
2026-05-05 22:16 -7.97267 -34.97396 2966 ft 206 kts 160°
2026-05-05 22:17 -7.99723 -34.96586 2553 ft 199 kts 160°
2026-05-05 22:17 -8.00704 -34.96262 2353 ft 196 kts 160°
2026-05-05 22:17 -8.02496 -34.95671 1943 ft 191 kts 159°
2026-05-05 22:18 -8.03407 -34.95371 1755 ft 184 kts 159°
2026-05-05 22:18 -8.05316 -34.94742 1307 ft 156 kts 159°
2026-05-05 22:18 -8.06037 -34.94504 1324 ft 133 kts 159°
2026-05-05 22:19 -8.06620 -34.94297 1123 ft 129 kts 158°
2026-05-05 22:19 -8.07248 -34.94083 949 ft 125 kts 159°
2026-05-05 22:19 -8.08334 -34.93718 714 ft 126 kts 157°
2026-05-05 22:20 -8.08947 -34.93514 620 ft 124 kts 162°
2026-05-05 22:20 -8.09611 -34.93306 517 ft 126 kts 160°
2026-05-05 22:20 -8.10197 -34.93110 359 ft 128 kts 160°
2026-05-05 22:20 -8.10770 -34.92906 182 ft 127 kts 160°
2026-05-05 22:21 -8.11259 -34.92757 118 ft 125 kts 163°
2026-05-05 22:21 -8.12558 -34.92337 46 ft 70 kts 167°
2026-05-05 22:22 -8.12758 -34.92275 46 ft 35 kts 162°
2026-05-05 22:22 -8.12838 -34.92250 46 ft 16 kts 163°
2026-05-05 22:22 -8.12862 -34.92242 46 ft 14 kts 162°
2026-05-05 22:23 -8.12921 -34.92219 45 ft 7 kts 160°
2026-05-05 22:23 -8.12955 -34.92212 45 ft 9 kts 173°
2026-05-05 22:23 -8.13010 -34.92197 45 ft 14 kts 157°
2026-05-05 22:24 -8.13090 -34.92171 45 ft 20 kts 161°
2026-05-05 22:24 -8.13162 -34.92139 45 ft 14 kts 155°
2026-05-05 22:24 -8.13222 -34.92095 45 ft 15 kts 133°
2026-05-05 22:24 -8.13269 -34.92034 45 ft 15 kts 127°
2026-05-05 22:25 -8.13294 -34.91996 44 ft 3 kts 115°
2026-05-05 22:25 -8.13301 -34.91975 45 ft 4 kts 101°
2026-05-05 22:25 -8.13301 -34.91950 45 ft 4 kts 83°
2026-05-05 22:25 -8.13294 -34.91927 45 ft 4 kts 73°
2026-05-05 22:26 -8.13288 -34.91907 45 ft 4 kts 72°
2026-05-05 22:26 -8.13281 -34.91887 45 ft 3 kts 71°
2026-05-05 22:26 -8.13279 -34.91881 46 ft 0 kts 71°
2026-05-05 22:26 -8.13280 -34.91885 45 ft 0 kts 71°
2026-05-05 22:27 -8.13280 -34.91884 45 ft 0 kts 71°
2026-05-05 22:27 -8.13278 -34.91878 46 ft 2 kts 72°
2026-05-05 22:27 -8.13278 -34.91877 46 ft 0 kts 72°